Location: ????????
(55.3155°N, 39.2900°E)
Time: 18:53:18
(UTC+00:00)

ACS3 Solar Sail - Pass Details

Date: 19 November 2025
Orbit: 889 x 1003 km, 97.3° (Epoch: 06 December)

Event Time Altitude Azimuth Distance (km) Brightness Sun altitude
Rises 01:36:51 0° 12° (NNE) 3,565 5.0 -28.8°
Reaches altitude 10° 01:39:17 10° 8° (N) 2,635 4.2 -28.5°
Enters shadow 01:43:15 41° 343° (NNW) 1,344 2.4 -27.9°
